Location: Newark
(46.1364°N, 6.1331°E)
Time: 19:25:39
(UTC+00:00)

ISS - Visible Passes

Search period start: 17 February 2020 00:00
Search period end: 27 February 2020 00:00
Orbit: 416 x 422 km, 51.6° (Epoch: 17 February)

Date Brightness Start Highest point End Pass type
(mag) Time Alt. Az. Time Alt. Az. Time Alt. Az.
20 Feb -0.7 05:42:07 10° S 05:44:07 15° SE 05:46:07 10° E visible
22 Feb -2.2 05:42:11 10° SSW 05:45:18 36° SE 05:48:27 10° ENE visible
23 Feb -1.5 04:55:03 10° SSW 04:57:47 23° SE 05:00:32 10° E visible
24 Feb -1.1 04:09:36 14° SSE 04:10:18 15° SE 04:12:16 10° E visible
24 Feb -3.7 05:43:16 10° WSW 05:46:39 86° SSE 05:50:03 10° ENE visible
25 Feb -3.2 04:57:11 24° SW 04:59:00 56° SSE 05:02:20 10° ENE visible
26 Feb -2.4 04:11:40 35° SE 04:11:40 35° SE 04:14:32 10° ENE visible
26 Feb -3.3 05:44:51 10° W 05:48:08 49° NNW 05:51:27 10° ENE visible
